Wind_Speed
16 14 13 12 12 12 13 11 7 4 4 7 10 13 13 13 13 14 15 17 16 16 16 15 14 14 13 13 12 12 12 10 8 5 3 3 3 5 7 8 10 10 10 10
18 15 15 15 14 14 14 12 9 7 7 9 11 12 12 13 13 14 15 16 17 16 15 14 14 13 13 12 12 12 11 9 7 5 2 2 3 5 7 8 10 10 10 10
19 17 18 17 16 15 14 12 11 12 12 13 13 12 13 12 13 14 15 15 16 16 16 14 13 12 12 12 12 11 10 8 7 5 3 2 3 4 6 8 10 11 10 11
21 20 20 18 17 17 15 13 13 15 16 16 16 15 13 12 13 14 14 14 15 16 15 13 12 11 11 12 11 10 9 7 6 6 4 3 4 4 5 8 9 10 11 12
21 21 21 20 18 18 16 15 15 16 17 17 17 18 15 14 14 14 13 13 15 15 14 12 11 11 11 11 10 9 8 7 7 6 5 4 4 4 5 7 9 10 10 12
24 24 23 21 20 19 18 17 17 17 16 15 14 17 16 15 15 14 14 13 15 15 15 13 11 10 10 10 10 9 8 7 7 6 6 5 4 4 5 7 9 10 11 12
25 25 23 22 22 21 20 19 19 18 15 11 12 15 14 14 15 15 14 13 15 15 14 14 12 11 9 9 9 8 7 8 7 6 6 5 5 5 6 7 9 11 12 13
28 25 24 23 22 21 20 20 19 18 15 14 14 14 12 11 13 14 14 13 14 15 14 13 12 11 9 9 9 8 7 7 7 6 5 5 5 6 6 7 8 11 12 13
29 26 24 24 22 21 21 20 19 19 18 18 17 15 13 12 12 12 13 12 12 13 13 12 11 10 9 9 8 8 8 7 7 6 5 5 4 5 6 7 8 10 12 13
29 28 26 25 24 22 20 19 21 21 20 20 19 17 14 13 14 14 14 12 12 13 12 11 11 10 9 9 8 8 8 7 7 7 7 6 5 5 6 6 7 9 11 13
29 29 27 28 27 22 21 21 22 22 22 22 21 18 17 15 16 15 14 13 13 13 12 11 10 9 9 9 8 8 8 7 7 8 7 7 6 6 6 6 7 8 9 10
28 29 29 29 26 24 22 21 21 23 22 23 24 21 19 18 17 16 16 15 14 12 12 12 10 10 9 9 9 9 9 8 8 8 8 7 7 6 6 6 7 8 10 11
29 31 31 30 29 26 24 22 21 21 23 24 25 23 21 21 20 18 18 18 15 14 14 12 11 10 10 10 10 10 9 9 9 9 8 8 8 7 7 7 8 9 10 12
28 31 32 31 28 27 25 23 22 22 24 25 25 24 23 23 21 20 19 18 16 16 15 14 12 12 11 11 12 12 11 10 10 10 9 9 9 9 10 9 10 10 10 11
30 31 32 32 32 30 28 25 23 23 23 24 24 25 24 23 23 21 20 19 18 18 17 15 13 13 13 12 13 13 12 12 12 11 11 11 11 11 11 11 11 11 11 12
34 33 32 32 34 35 32 28 26 25 23 24 24 24 24 24 23 24 23 21 20 20 19 17 16 14 14 14 14 14 13 13 13 13 13 13 12 13 12 12 12 12 13 13
37 34 33 33 35 36 37 32 29 27 26 25 25 23 25 25 25 24 23 22 22 20 20 19 18 16 16 16 15 15 15 15 15 15 15 14 15 14 14 13 14 14 15 15
38 36 35 34 36 40 36 34 32 30 27 26 26 25 25 26 26 25 25 24 22 22 22 21 19 19 18 18 17 17 17 17 17 17 17 17 17 16 16 15 16 15 16 16
40 39 37 36 38 39 38 36 35 33 31 29 29 27 27 27 27 27 26 25 24 24 23 22 21 20 20 19 19 18 18 19 19 19 19 19 18 18 18 18 18 18 17 17
42 40 39 37 38 40 38 36 37 37 35 33 32 30 29 29 29 28 28 27 26 26 26 23 21 20 20 20 20 20 20 20 20 20 19 19 19 19 19 19 19 19 19 19
42 42 40 39 38 39 38 37 38 40 38 34 33 33 32 31 29 28 28 28 28 26 25 25 23 22 21 21 21 21 21 21 21 21 21 21 20 20 20 20 20 20 21 21
43 42 41 40 39 39 37 38 39 40 37 35 34 34 33 32 29 29 29 28 27 27 27 25 24 23 23 22 22 21 21 22 22 22 22 21 21 21 20 21 21 21 22 22
44 43 41 41 40 37 37 38 39 39 38 36 34 33 33 33 29 29 27 26 27 26 26 26 25 23 23 23 23 23 23 23 23 23 22 22 22 22 22 22 22 22 22 22
44 44 42 40 39 38 38 38 38 39 39 37 36 34 32 32 31 31 28 27 27 26 26 24 24 23 22 23 23 24 23 23 23 23 23 23 23 22 23 23 22 22 22 23
42 42 41 41 39 38 37 37 38 38 38 38 36 35 34 33 32 30 29 28 28 27 25 25 25 23 23 24 24 25 25 24 24 24 24 24 24 23 23 23 23 23 24 24
40 39 38 38 37 36 37 37 37 37 37 37 36 36 34 34 34 31 29 29 28 26 25 25 26 26 25 24 25 25 26 25 24 24 24 24 24 23 23 23 24 24 24 24
Wind_Direction
227 226 226 226 222 226 230 231 231 244 280 295 302 307 307 310 317 327 335 338 341 338 334 331 331 332 334 339 341 342 344 347 348 340 299 268 248 219 211 210 209 205 204 203
229 227 227 227 226 229 235 233 226 232 254 266 281 290 293 299 308 318 327 333 336 332 331 326 326 328 334 338 339 338 340 340 340 346 320 262 248 234 225 214 208 206 205 203
230 226 229 231 230 230 233 236 230 227 239 254 264 275 283 289 299 308 316 325 327 325 325 321 322 328 336 338 339 337 336 337 339 336 325 275 264 238 223 212 209 208 211 209
229 229 231 233 234 233 231 236 236 232 235 243 261 267 271 281 291 301 309 317 323 325 323 322 322 327 335 337 335 335 333 334 336 332 318 295 276 253 222 212 208 211 217 216
228 231 234 234 234 234 232 236 242 241 244 248 258 266 268 273 281 295 303 312 320 324 326 325 325 325 331 335 332 326 323 324 326 324 316 297 275 254 231 214 207 212 220 219
227 230 234 235 233 233 234 238 244 248 252 255 258 262 264 270 282 292 301 310 320 326 327 327 323 322 326 331 332 326 321 324 323 315 306 296 278 253 244 230 221 218 217 219
231 232 235 236 236 235 237 240 245 249 251 247 248 256 266 270 278 287 294 306 317 324 326 325 322 322 323 330 334 328 326 326 324 317 305 293 271 257 251 241 231 227 223 223
231 230 233 236 239 240 241 242 245 249 243 234 240 252 263 271 280 286 292 302 315 318 320 318 318 320 324 329 333 330 326 325 324 318 311 295 269 261 249 242 239 232 226 225
232 230 229 233 235 237 239 242 244 244 239 238 241 250 263 277 288 299 300 300 309 314 317 315 314 316 318 321 324 328 325 321 323 323 320 314 295 271 258 250 243 234 229 230
230 229 226 227 228 230 234 238 239 239 238 241 245 253 265 277 286 300 304 299 304 310 317 315 310 308 311 315 317 320 324 324 323 325 325 321 306 283 272 260 253 243 237 234
226 227 222 224 227 227 230 235 239 240 239 241 243 250 261 271 279 289 293 296 305 311 316 311 306 305 308 311 313 317 318 319 320 322 321 320 312 294 275 266 260 251 244 241
222 225 222 224 225 226 227 233 239 242 243 243 245 246 253 264 268 279 290 294 295 308 314 311 304 302 305 307 308 309 313 310 312 315 315 311 308 301 286 272 267 260 253 251
218 221 219 219 223 227 229 230 234 241 245 244 245 246 250 259 266 273 286 290 292 301 307 307 303 302 302 301 302 305 308 307 309 311 308 308 303 296 285 275 272 266 261 259
218 222 221 219 220 227 230 230 234 240 244 244 245 247 249 257 265 273 281 285 291 297 303 303 304 303 302 299 298 300 302 303 305 305 302 298 300 296 284 278 275 272 268 263
219 221 221 218 216 222 226 228 232 240 245 247 245 246 249 256 264 269 277 282 289 293 299 299 300 303 302 297 295 295 296 298 300 301 300 299 295 296 292 284 280 277 276 272
221 222 222 220 216 220 224 226 229 235 241 245 245 244 244 252 260 269 277 280 285 290 292 296 294 296 299 295 291 290 290 292 294 295 296 296 293 291 293 291 287 282 279 276
224 226 225 223 219 220 223 226 229 232 235 237 242 244 243 248 257 266 275 279 284 288 291 293 292 290 290 290 289 289 289 289 289 291 292 291 291 291 290 291 290 285 279 277
226 230 230 227 223 223 225 227 231 233 235 237 240 243 245 249 257 265 272 277 281 284 287 289 291 289 287 286 284 284 285 284 286 287 289 291 291 289 288 289 289 287 284 281
227 230 231 230 227 227 226 226 228 231 233 236 238 242 248 254 258 262 267 274 277 281 280 282 284 285 284 284 283 283 282 283 284 285 287 288 289 289 288 288 288 285 284 284
226 229 230 230 230 229 227 227 228 231 234 236 239 242 248 255 258 262 268 272 277 281 282 281 282 281 280 280 280 279 280 281 282 283 284 285 288 289 290 288 286 283 281 282
225 228 230 231 231 230 227 226 228 230 235 239 243 246 251 254 257 261 264 268 275 277 279 281 281 281 283 283 282 280 278 278 280 281 281 284 286 287 287 287 284 283 282 281
223 226 228 230 230 230 228 227 228 232 237 242 246 249 252 252 255 262 266 267 270 271 275 275 276 277 280 281 281 282 282 279 279 280 281 283 283 284 285 285 283 281 281 281
223 225 227 228 229 230 229 229 230 233 238 241 246 249 251 253 256 262 264 264 270 273 275 272 272 275 278 279 280 283 285 284 281 280 281 281 282 283 283 283 283 281 280 281
224 226 227 227 229 230 229 229 231 233 237 241 245 246 251 253 258 262 264 267 271 273 275 271 271 275 275 277 280 282 284 284 282 282 282 282 282 282 282 284 283 281 280 281
225 226 226 228 229 229 230 230 232 236 239 242 245 249 253 258 260 261 266 269 274 274 272 273 273 273 274 277 279 282 283 283 282 282 281 282 283 282 282 282 282 282 282 283
223 225 226 227 228 230 230 231 233 237 240 244 249 252 257 258 260 263 268 270 273 272 273 274 275 274 275 278 280 282 283 282 281 281 280 280 281 281 281 281 281 281 282 283
Height
5907 5910 5912 5913 5914 5915 5915 5915 5915 5914 5915 5915 5915 5915 5914 5913 5912 5912 5911 5910 5908 5906 5904 5902 5901 5899 5896 5894 5892 5890 5888 5887 5885 5884 5884 5884 5884 5884 5885 5886 5888 5889 5891 5892
5904 5907 5908 5909 5910 5911 5912 5913 5913 5913 5913 5914 5913 5914 5913 5912 5911 5910 5910 5909 5907 5906 5903 5901 5899 5897 5895 5893 5891 5889 5887 5886 5884 5883 5883 5883 5883 5883 5884 5885 5886 5888 5889 5891
5900 5904 5904 5905 5907 5908 5909 5911 5911 5912 5912 5911 5912 5912 5911 5910 5909 5909 5909 5908 5906 5904 5903 5900 5898 5896 5894 5892 5889 5887 5886 5885 5883 5882 5881 5881 5881 5881 5882 5883 5884 5886 5887 5889
5895 5898 5899 5901 5904 5905 5906 5907 5908 5909 5909 5909 5910 5909 5909 5908 5907 5907 5907 5906 5905 5903 5901 5899 5896 5895 5892 5890 5888 5887 5885 5884 5883 5882 5881 5880 5880 5880 5881 5881 5882 5884 5885 5887
5891 5893 5895 5897 5900 5901 5903 5904 5905 5905 5906 5906 5907 5906 5907 5905 5905 5905 5905 5904 5903 5902 5899 5897 5895 5893 5891 5889 5887 5886 5884 5883 5882 5881 5880 5879 5879 5879 5879 5880 5880 5882 5883 5885
5886 5887 5890 5893 5895 5897 5898 5900 5901 5901 5902 5904 5904 5903 5903 5902 5902 5903 5903 5902 5901 5899 5897 5895 5893 5892 5890 5888 5886 5885 5883 5882 5881 5879 5879 5878 5878 5877 5878 5878 5879 5880 5881 5883
5880 5883 5885 5888 5890 5892 5894 5896 5897 5898 5899 5901 5900 5899 5900 5900 5899 5900 5900 5900 5899 5897 5895 5894 5892 5890 5888 5887 5885 5884 5882 5881 5879 5878 5877 5876 5876 5876 5876 5877 5877 5878 5879 5880
5873 5878 5881 5883 5886 5888 5889 5891 5894 5895 5896 5896 5896 5895 5897 5897 5897 5896 5897 5897 5896 5895 5893 5892 5890 5889 5887 5886 5884 5883 5881 5880 5878 5877 5875 5875 5874 5874 5874 5875 5875 5875 5877 5878
5867 5872 5876 5878 5880 5883 5884 5886 5889 5890 5891 5891 5892 5892 5893 5893 5893 5893 5893 5893 5893 5892 5891 5890 5888 5887 5886 5885 5883 5882 5880 5879 5877 5876 5874 5873 5873 5872 5872 5872 5873 5873 5874 5875
5860 5865 5869 5872 5874 5876 5880 5882 5883 5884 5886 5886 5888 5889 5889 5889 5889 5891 5891 5891 5891 5890 5889 5887 5886 5885 5884 5883 5882 5880 5879 5878 5876 5875 5873 5873 5872 5871 5871 5871 5871 5871 5872 5873
5853 5858 5863 5865 5868 5871 5875 5877 5878 5880 5881 5883 5884 5887 5886 5887 5887 5887 5888 5888 5888 5887 5886 5884 5884 5883 5882 5881 5880 5878 5877 5876 5875 5874 5873 5872 5871 5870 5869 5869 5869 5869 5870 5870
5847 5851 5855 5859 5863 5866 5869 5871 5874 5876 5877 5878 5879 5884 5883 5883 5884 5884 5885 5885 5885 5884 5883 5882 5882 5881 5880 5878 5877 5876 5876 5875 5874 5872 5871 5870 5869 5868 5868 5867 5868 5868 5868 5868
5840 5843 5849 5853 5858 5861 5863 5866 5868 5871 5872 5873 5874 5880 5879 5879 5880 5880 5881 5882 5881 5881 5880 5879 5879 5878 5877 5876 5875 5874 5874 5873 5872 5871 5870 5869 5868 5867 5866 5865 5865 5865 5865 5865
5834 5837 5843 5848 5852 5855 5858 5861 5864 5865 5866 5868 5870 5872 5874 5875 5876 5876 5877 5877 5877 5877 5877 5876 5875 5875 5874 5874 5873 5872 5871 5871 5870 5869 5868 5867 5866 5865 5864 5863 5863 5863 5862 5862
5827 5831 5836 5842 5847 5849 5852 5855 5858 5860 5862 5863 5865 5867 5869 5870 5871 5872 5873 5873 5874 5874 5874 5873 5872 5872 5871 5871 5870 5869 5869 5868 5867 5866 5865 5864 5863 5863 5861 5861 5860 5860 5859 5859
5821 5826 5831 5836 5841 5844 5846 5850 5853 5855 5857 5858 5860 5862 5864 5865 5867 5868 5869 5869 5870 5870 5870 5870 5869 5869 5868 5867 5867 5866 5865 5865 5864 5863 5862 5861 5860 5859 5858 5858 5857 5856 5856 5855
5816 5821 5825 5830 5835 5838 5841 5845 5847 5849 5851 5853 5855 5859 5860 5861 5863 5864 5865 5866 5866 5865 5866 5866 5865 5864 5864 5864 5863 5862 5861 5861 5860 5859 5859 5858 5857 5856 5855 5854 5853 5852 5851 5850
5811 5815 5819 5824 5829 5831 5838 5840 5842 5844 5845 5848 5850 5853 5855 5857 5858 5859 5861 5861 5862 5862 5862 5861 5860 5860 5860 5859 5858 5858 5857 5857 5856 5855 5854 5854 5853 5852 5851 5850 5849 5848 5847 5846
5804 5808 5812 5817 5820 5824 5830 5834 5836 5838 5839 5842 5845 5848 5850 5851 5853 5854 5855 5856 5857 5857 5856 5856 5856 5855 5855 5854 5854 5853 5852 5852 5851 5850 5850 5849 5848 5847 5846 5845 5844 5843 5842 5841
5797 5801 5806 5809 5813 5816 5824 5827 5829 5832 5833 5837 5839 5842 5845 5846 5848 5849 5850 5851 5851 5851 5850 5850 5850 5849 5849 5849 5848 5848 5847 5847 5846 5845 5845 5844 5843 5842 5841 5840 5839 5838 5837 5836
5789 5792 5797 5801 5805 5809 5816 5819 5822 5826 5828 5832 5834 5836 5839 5841 5842 5844 5844 5844 5845 5845 5844 5844 5844 5844 5843 5843 5842 5842 5841 5841 5840 5840 5839 5838 5837 5836 5835 5834 5833 5832 5831 5830
5780 5784 5789 5793 5798 5804 5808 5812 5815 5818 5822 5825 5828 5830 5832 5833 5835 5836 5837 5837 5838 5838 5838 5839 5838 5838 5837 5837 5837 5836 5836 5835 5835 5834 5833 5833 5832 5831 5830 5828 5827 5826 5825 5824
5772 5777 5781 5786 5792 5797 5801 5805 5808 5812 5815 5819 5821 5824 5826 5827 5828 5830 5830 5830 5831 5831 5831 5832 5832 5832 5832 5831 5831 5831 5830 5829 5828 5828 5827 5826 5825 5824 5823 5822 5821 5819 5818 5817
5764 5769 5774 5778 5783 5788 5793 5797 5801 5805 5809 5812 5814 5816 5819 5820 5822 5823 5824 5824 5825 5825 5824 5824 5825 5825 5826 5825 5825 5825 5824 5823 5822 5821 5821 5820 5819 5818 5817 5815 5814 5813 5812 5810
5757 5762 5766 5771 5776 5781 5786 5790 5794 5798 5801 5805 5807 5809 5812 5814 5815 5816 5817 5817 5818 5818 5818 5819 5819 5819 5819 5819 5819 5818 5817 5816 5815 5814 5814 5813 5812 5811 5810 5809 5807 5806 5805 5804
5749 5754 5759 5764 5769 5775 5779 5783 5787 5791 5794 5797 5800 5802 5804 5806 5808 5809 5810 5810 5811 5811 5811 5812 5812 5812 5812 5812 5812 5812 5811 5809 5807 5807 5806 5805 5804 5803 5802 5801 5800 5799 5798 5796